AirNav   Air Wisconsin pilot careers
 
 750 users online  

4TX2 Stage Coach Hills Airport
Westlake, Texas, USA

GOING TO WESTLAKE?


FAA INFORMATION EFFECTIVE 11 OCTOBER 2018

Location

FAA Identifier: 4TX2
Lat/Long: 32-58-00.4490N / 097-14-01.0530W
32-58.007483N / 097-14.017550W
32.9667914 / -97.2336258
(estimated)
Elevation: 684 ft. / 208 m (estimated)
Variation: 07E (1985)
From city: 2 miles SW of WESTLAKE, TX
Time zone: UTC -5 (UTC -6 during Standard Time)
Zip code: 76262

Airport Operations

Airport use: Private use. Permission required prior to landing
Activation date: 07/1973
Control tower: no
ARTCC: FORT WORTH CENTER
FSS: FORT WORTH FLIGHT SERVICE STATION
Attendance: UNATNDD
Wind indicator: yes
Segmented circle: yes

Airport Communications

WX ASOS at AFW (5 nm W): PHONE 817-491-6188
WX ASOS at DFW (11 nm SE): PHONE 972-615-2608
WX ASOS at FTW (11 nm SW): PHONE 817-740-3346
WX ASOS at DTO (14 nm N): 119.325 (940-383-8457)
WX AWOS-3P at GPM (19 nm SE): 118.475 (972-606-1433)
WX ASOS at GKY (19 nm S): 127.375 (817-557-0251)
WX AWOS-3 at ADS (20 nm E): PHONE 972-386-4855

Nearby radio navigation aids

VOR radial/distance  VOR name  Freq  Var
FUZr324/5.4RANGER VORTAC115.7006E
TTTr295/11.4MAVERICK VOR/DME113.1006E
CVEr279/17.2COWBOY VOR/DME116.2006E

 
NDB name  Hdg/Dist  Freq  Var  ID
MUFIN050/8.336508EFT ..-. -
MESQUITE282/36.724803EPQF .--. --.- ..-.
MELISA238/36.942103EVLY ...- .-.. -.--

Airport Services

Airframe service: NONE
Powerplant service: NONE

Runway Information

Runway 17/35

Dimensions: 2700 x 90 ft. / 823 x 27 m
Surface: turf
RUNWAY 17  RUNWAY 35
Traffic pattern: rightleft

Airport Ownership and Management from official FAA records

Ownership: Privately-owned
Owner: STEVE THORNTON
13187 THORTON DRIVE
ROANOKE, TX 76262
Phone (817) 995-9647
Manager: J. L. HASKINS
5920 STEVE COURT
WESTLAKE , TX 76262
Phone 817-430-1987

Airport Operational Statistics

Aircraft based on the field: 17
Single engine airplanes: 16
Multi engine airplanes: 1
    

Additional Remarks

TREES ALONG WESTERN EDGE OF RY.
FOR CD CTC REGIONAL APCH AT 972-615-2799.

Instrument Procedures

There are no published instrument procedures at 4TX2.

Some nearby airports with instrument procedures:

KAFW - Fort Worth Alliance Airport (5 nm W)
KDFW - Dallas-Fort Worth International Airport (11 nm SE)
KFTW - Fort Worth Meacham International Airport (11 nm SW)
4T2 - Kenneth Copeland Airport (13 nm W)
KDTO - Denton Enterprise Airport (14 nm N)
KNFW - Fort Worth Naval Air Station JRB (Carswell Field) Airport (16 nm SW)
KGPM - Grand Prairie Municipal Airport (19 nm SE)
KGKY - Arlington Municipal Airport (19 nm S)
KADS - Addison Airport (20 nm E)
 
Loc | Ops | Rwys | IFR | FBO | Links
Com | Nav | Svcs | Stats | Notes


 
Area around 4TX2 (Stage Coach Hills Airport)
 
Road maps at: MapQuest Bing Google
 
Aerial photo
WARNING: Photo may not be current or correct
Aerial photo of 4TX2 (Stage Coach Hills Airport)
Do you have a better or more recent aerial photo of Stage Coach Hills Airport that you would like to share? If so, please send us your photo.

 
Sectional chart

 
Airport distance calculator
Flying to Stage Coach Hills Airport? Find the distance to fly.

From to 4TX2

Sunrise and sunset
Times for 19-Oct-2018
 Local
(UTC-5)
 Zulu
(UTC)
Morning civil twilight07:1212:12
Sunrise07:3712:37
Sunset18:5123:51
Evening civil twilight19:1600:16

Current date and time
Zulu (UTC)  20-Oct-2018 03:47:05
Local (UTC-5)  19-Oct-2018 22:47:05
 
METAR
KAFW 
4nm W 
200328Z 00000KT 10SM OVC009 16/14 A3017 RMK AO2 T01560139
KFTW 
10nm SW 
200311Z 00000KT 10SM BKN009 BKN019 OVC060 14/14 A3016 RMK AO2 CIG 007V012 T01440144
KDFW 
12nm E 
200253Z 00000KT 10SM SCT008 BKN017 OVC100 15/14 A3015 RMK AO2 SLP206 60002 T01500139 51013
KDTO 
14nm N 
200253Z 00000KT 7SM CLR 14/13 A3016 RMK AO2 SLP211 60001 T01440133 53006
KNFW 
16nm SW 
200252Z 00000KT 10SM FEW007 BKN012 OVC065 16/14 A3017 RMK AO2 SLP198 T01610144 53011 $
KGPM 
18nm SE 
200335Z AUTO 00000KT 10SM BKN008 OVC013 16/16 A3018 RMK AO2 T01550155
KGKY 
19nm S 
200305Z AUTO 00000KT 10SM BKN012 OVC019 16/16 A3017 RMK AO2 T01560156
TAF
KAFW 
4nm W 
200115Z 2001/2024 35003KT P6SM FEW009 SCT060 BKN100 TEMPO 2001/2003 -RA BKN009 FM200300 36004KT P6SM SCT005 BKN015 TEMPO 2005/2009 4SM BR BKN005 FM201200 35006KT 5SM BR BKN007 FM201500 01010KT P6SM BKN011 FM201800 02016KT P6SM SCT025 BKN060
KFTW 
10nm SW 
200115Z 2001/2024 35003KT P6SM FEW009 SCT060 BKN100 TEMPO 2001/2003 -RA BKN009 FM200300 36004KT P6SM SCT005 BKN015 TEMPO 2005/2009 4SM BR BKN005 FM201200 35006KT 5SM BR BKN007 FM201500 01010KT P6SM BKN011 FM201800 02016KT P6SM SCT025 BKN060
KDFW 
12nm E 
200115Z 2001/2106 35003KT P6SM FEW009 SCT060 BKN100 TEMPO 2001/2003 -RA BKN009 FM200300 36004KT P6SM SCT005 BKN015 TEMPO 2005/2009 4SM BR BKN005 FM201200 35006KT 5SM BR BKN007 FM201500 01010KT P6SM BKN011 FM201800 02016KT P6SM SCT025 BKN060
KNFW 
16nm SW 
1923/2023 VRB04KT 9999 -RA FEW007 BKN030 OVC080 QNH3009INS TEMPO 1923/2001 4000 SHRA BKN006 OVC012 BECMG 2001/2003 VRB04KT 9000 -SHRA BKN006 OVC012 QNH3014INS TEMPO 2003/2008 4000 +RA SCT004 FM200800 VRB06KT 9999 OVC006 QNH3015INS FM201000 35009KT 8000 BR SCT006 OVC015 QNH3019INS TEMPO 2010/2014 1600 BR OVC006 FM201400 36010KT 9999 BKN025 OVC050 QNH3024INS FM201600 01011KT 9999 FEW060 BKN250 QNH3026INS AUTOMATED SENSOR METWATCH 2004 TIL 2011 T13/2012Z T20/2022Z FN20048
KGKY 
19nm S 
200115Z 2001/2024 35003KT P6SM FEW009 SCT060 BKN100 TEMPO 2001/2003 -RA BKN009 FM200300 36004KT P6SM SCT005 BKN015 TEMPO 2005/2009 4SM BR BKN005 FM201200 35006KT 5SM BR BKN007 FM201500 01010KT P6SM BKN011 FM201800 02016KT P6SM SCT025 BKN060
NOTAMs
Click for the latest NOTAMs
NOTAMs are issued by the DoD/FAA and will open in a separate window not controlled by AirNav.

 

 
 

Would you like to see your business listed on this page?

 If your business provides an interesting product or service to pilots, flight crews, aircraft, or users of the Stage Coach Hills Airport, you should consider listing it here.  To start the listing process, click on the button below
 
Add a business
 

Other Pages about Stage Coach Hills Airport

Update a link
 
Copyright © AirNav, LLC. All rights reserved. Privacy Policy  Contact